Total_Precipitation_Accumulation
0.04 0.10 0.22 0.48 1.32 1.67 1.46 0.77 0.53 0.41 0.39 0.48 0.47 0.42 0.51 0.67 0.89 1.32 0.77 0.27 0.10 0.06 0.08 0.16 0.21 0.19 0.19 0.20 0.21 0.25 0.25 0.24 0.23 0.22 0.21 0.18 0.19 0.20 0.22 0.24 0.27 0.31 0.33 0.30 0.27 0.30 0.31 0.30 0.26
0.05 0.14 0.28 0.69 1.60 2.04 1.52 0.73 0.45 0.31 0.39 0.52 0.61 0.56 0.47 0.49 0.35 0.28 0.35 0.43 0.14 0.05 0.05 0.08 0.16 0.18 0.17 0.17 0.20 0.23 0.25 0.23 0.23 0.22 0.23 0.23 0.25 0.28 0.31 0.31 0.30 0.31 0.30 0.27 0.26 0.24 0.26 0.25 0.23
0.08 0.15 0.36 0.80 1.21 1.33 1.10 0.60 0.34 0.32 0.39 0.56 0.61 0.47 0.41 0.52 0.36 0.25 0.24 0.27 0.14 0.08 0.06 0.09 0.14 0.16 0.17 0.17 0.20 0.22 0.23 0.22 0.23 0.23 0.25 0.27 0.29 0.31 0.32 0.33 0.34 0.31 0.29 0.27 0.26 0.24 0.20 0.22 0.23
0.08 0.17 0.39 0.61 0.62 0.54 0.46 0.37 0.32 0.34 0.42 0.44 0.52 0.51 0.39 0.44 0.35 0.27 0.27 0.24 0.17 0.13 0.11 0.14 0.17 0.17 0.18 0.17 0.18 0.19 0.21 0.21 0.22 0.22 0.25 0.28 0.29 0.32 0.36 0.35 0.35 0.32 0.29 0.24 0.26 0.26 0.22 0.22 0.24
0.08 0.23 0.45 0.49 0.36 0.36 0.37 0.36 0.36 0.40 0.44 0.55 0.66 0.69 0.65 0.49 0.38 0.46 0.55 0.46 0.31 0.23 0.20 0.22 0.25 0.24 0.21 0.21 0.20 0.21 0.20 0.21 0.23 0.25 0.27 0.29 0.30 0.34 0.37 0.34 0.32 0.30 0.28 0.22 0.24 0.30 0.29 0.32 0.35
0.10 0.27 0.33 0.31 0.27 0.30 0.36 0.36 0.36 0.41 0.51 0.73 0.75 0.71 0.72 0.64 0.53 0.59 0.63 0.78 0.65 0.38 0.29 0.28 0.34 0.33 0.28 0.27 0.27 0.26 0.24 0.25 0.26 0.25 0.26 0.28 0.30 0.35 0.34 0.32 0.34 0.32 0.29 0.27 0.26 0.28 0.34 0.41 0.41
0.14 0.29 0.26 0.23 0.20 0.24 0.25 0.34 0.44 0.46 0.56 0.73 0.64 0.62 0.82 0.91 0.75 0.69 0.68 0.76 0.67 0.46 0.43 0.37 0.34 0.32 0.32 0.35 0.38 0.36 0.30 0.31 0.31 0.27 0.26 0.27 0.31 0.34 0.33 0.34 0.38 0.36 0.33 0.34 0.33 0.28 0.29 0.33 0.38
0.08 0.15 0.16 0.16 0.15 0.19 0.18 0.23 0.38 0.53 0.58 0.56 0.60 0.77 1.11 1.03 0.69 0.66 0.72 0.77 0.70 0.62 0.58 0.56 0.50 0.44 0.37 0.37 0.42 0.44 0.40 0.38 0.35 0.33 0.32 0.37 0.42 0.43 0.41 0.37 0.43 0.41 0.39 0.43 0.43 0.38 0.35 0.41 0.48
0.04 0.09 0.12 0.10 0.09 0.15 0.17 0.22 0.32 0.46 0.50 0.57 0.75 0.81 0.87 0.73 0.59 0.73 0.88 1.01 1.08 0.91 0.79 0.70 0.60 0.53 0.48 0.39 0.38 0.44 0.46 0.46 0.43 0.47 0.48 0.58 0.74 0.77 0.78 0.70 0.74 0.71 0.68 0.70 0.70 0.67 0.62 0.59 0.54
0.04 0.07 0.07 0.05 0.06 0.12 0.14 0.22 0.38 0.53 0.63 0.86 1.17 1.22 0.94 0.79 0.74 0.84 1.07 1.18 1.42 1.17 0.88 0.81 0.63 0.57 0.48 0.40 0.51 0.62 0.63 0.67 0.69 0.81 0.85 1.06 1.27 1.27 1.01 1.13 1.24 1.19 1.21 1.12 1.10 1.29 1.10 0.85 0.77
0.02 0.03 0.02 0.03 0.03 0.05 0.11 0.18 0.28 0.46 0.82 1.29 1.37 1.19 0.97 1.04 1.06 1.06 1.36 1.43 1.35 1.20 1.19 1.12 0.89 0.78 0.73 0.78 0.71 0.79 0.92 1.07 1.05 1.04 1.17 1.45 1.36 1.21 1.11 1.19 1.50 1.66 1.73 1.64 1.67 1.80 1.49 1.43 1.61
0.01 0.01 0.01 0.03 0.04 0.05 0.06 0.10 0.21 0.43 0.90 1.06 1.02 0.96 0.93 1.12 1.17 1.26 1.57 1.63 1.64 1.51 1.75 1.81 1.48 1.39 1.26 1.10 1.01 0.95 0.96 1.14 1.28 1.47 1.52 1.66 1.74 1.66 1.51 1.55 1.75 1.89 2.03 2.38 2.30 2.20 2.08 2.03 1.92
0.01 0.01 0.01 0.02 0.04 0.07 0.05 0.11 0.29 0.61 0.81 0.70 0.60 0.83 0.90 1.23 1.55 1.73 1.96 1.80 2.05 2.14 2.35 2.52 2.08 1.96 1.83 1.79 1.67 1.43 1.45 1.53 1.62 1.81 1.95 2.01 2.16 2.18 2.12 2.03 1.98 1.84 1.94 2.28 2.52 2.40 2.45 2.39 2.22
0.01 0.01 0.01 0.02 0.04 0.05 0.09 0.21 0.39 0.67 0.62 0.57 0.72 1.12 1.33 1.30 1.58 1.96 2.10 2.18 2.50 2.66 2.77 2.90 2.76 2.75 2.58 2.34 2.34 2.31 1.97 1.93 1.92 1.96 1.90 2.09 2.30 2.57 2.67 2.55 2.40 2.09 2.01 2.09 2.39 2.50 2.66 2.58 2.43
0.00 0.02 0.05 0.07 0.08 0.07 0.12 0.41 0.56 0.68 0.58 0.60 0.83 1.18 1.52 1.45 1.59 1.87 2.08 2.55 3.25 3.57 3.44 3.46 3.44 3.67 3.48 3.05 2.75 2.49 2.31 2.25 2.30 2.29 2.18 2.29 2.49 2.70 2.70 2.51 2.18 1.97 1.99 2.11 2.07 2.12 2.41 2.21 2.08
0.01 0.05 0.16 0.18 0.13 0.11 0.20 0.70 0.81 0.72 0.85 0.92 1.10 1.26 1.54 1.57 1.60 1.82 2.29 3.05 3.89 4.40 4.29 4.08 3.70 4.01 3.95 3.60 3.32 3.02 2.76 2.77 2.69 2.43 2.32 2.24 2.37 2.31 2.37 2.04 1.71 1.81 1.98 2.05 2.09 2.03 2.13 2.15 2.23
0.04 0.08 0.16 0.24 0.17 0.14 0.25 0.88 0.91 0.68 0.95 1.20 1.11 1.25 1.46 1.61 1.75 1.88 2.44 3.26 4.07 4.82 5.00 4.96 4.85 4.50 4.18 3.98 3.80 3.62 3.42 3.09 2.75 2.56 2.42 2.15 1.92 1.79 1.90 1.69 1.61 1.67 1.84 1.87 1.75 1.96 2.14 2.11 2.15
0.07 0.09 0.16 0.24 0.18 0.17 0.31 0.65 0.76 0.78 0.94 1.11 1.10 1.12 1.21 1.46 1.87 2.00 2.30 3.03 3.92 4.78 5.32 5.48 5.47 5.05 4.50 4.01 3.60 3.52 3.33 3.06 2.80 2.55 2.30 1.95 1.75 1.60 1.77 1.64 1.53 1.58 1.71 1.76 1.88 2.03 2.10 1.91 1.86
0.07 0.09 0.18 0.24 0.18 0.20 0.36 0.55 0.69 0.81 1.05 1.18 1.20 1.15 1.18 1.46 1.88 2.10 2.39 2.86 3.63 4.37 5.04 5.14 5.32 4.79 4.12 3.54 3.08 2.97 2.78 2.49 2.43 2.32 2.13 1.98 1.78 1.69 1.80 1.63 1.57 1.47 1.53 1.54 1.64 1.76 1.78 1.53 1.70
0.09 0.12 0.20 0.22 0.15 0.18 0.36 0.63 0.83 0.92 0.91 0.98 1.02 1.07 1.18 1.54 1.97 2.34 2.87 3.23 3.25 3.76 4.46 4.51 4.16 3.89 3.41 3.00 2.79 2.62 2.54 2.25 2.09 1.96 1.93 1.75 1.61 1.57 1.55 1.55 1.40 1.37 1.44 1.42 1.49 1.61 1.58 1.41 1.62
0.12 0.14 0.18 0.17 0.16 0.23 0.41 0.79 1.09 1.05 0.80 0.72 0.78 0.86 1.01 1.35 1.86 2.29 2.70 3.10 3.07 3.43 3.53 3.15 2.94 2.96 2.87 2.68 2.55 2.43 2.38 2.19 1.91 1.70 1.67 1.58 1.41 1.36 1.31 1.27 1.28 1.34 1.22 1.27 1.37 1.52 1.65 1.51 1.42
0.08 0.08 0.07 0.07 0.14 0.29 0.43 0.97 1.38 1.18 0.90 0.75 0.78 0.96 1.02 1.13 1.32 1.59 1.93 2.35 2.54 2.62 2.54 2.47 2.41 2.38 2.55 2.55 2.31 2.10 1.78 1.64 1.55 1.45 1.47 1.50 1.34 1.27 1.21 1.17 1.26 1.29 1.24 1.35 1.17 1.25 1.49 1.61 1.42
0.05 0.04 0.05 0.08 0.13 0.27 0.48 0.82 1.23 1.21 1.18 1.02 0.89 0.95 0.90 0.93 0.97 1.12 1.24 1.45 1.73 1.97 2.02 1.98 2.20 2.28 2.27 2.24 2.18 2.14 1.87 1.67 1.58 1.66 1.82 1.72 1.46 1.23 1.10 1.11 1.20 1.26 1.25 1.29 1.27 1.34 1.30 1.36 1.32
0.04 0.05 0.12 0.25 0.37 0.70 0.69 0.74 1.09 1.06 1.02 1.02 0.87 0.73 0.69 0.70 0.75 0.92 0.98 1.03 1.16 1.31 1.41 1.51 1.74 1.94 1.98 1.93 1.93 1.96 1.92 1.82 1.59 1.51 1.57 1.51 1.37 1.20 1.07 1.09 1.22 1.23 1.20 1.21 1.22 1.23 1.19 1.24 1.27
0.05 0.09 0.32 0.69 1.01 1.18 0.73 0.71 0.93 0.81 0.82 0.90 0.71 0.49 0.44 0.52 0.55 0.66 0.72 0.81 0.91 0.93 0.99 1.14 1.33 1.48 1.61 1.66 1.69 1.75 1.90 1.80 1.55 1.37 1.37 1.32 1.17 1.06 1.03 1.02 1.22 1.32 1.29 1.25 1.28 1.28 1.28 1.33 1.34
0.06 0.07 0.19 0.34 0.50 0.71 0.75 1.11 1.05 0.68 0.63 0.55 0.40 0.30 0.28 0.43 0.46 0.45 0.50 0.55 0.69 0.74 0.79 0.89 0.97 1.06 1.20 1.42 1.60 1.57 1.65 1.51 1.38 1.47 1.36 1.20 1.00 1.00 1.17 1.25 1.29 1.30 1.33 1.33 1.49 1.40 1.38 1.45 1.46
0.05 0.05 0.06 0.10 0.16 0.44 0.83 1.19 0.99 0.58 0.54 0.41 0.28 0.23 0.27 0.34 0.44 0.40 0.39 0.43 0.46 0.51 0.57 0.65 0.82 0.98 1.05 1.15 1.37 1.46 1.40 1.37 1.42 1.52 1.44 1.29 1.17 1.06 1.19 1.30 1.39 1.36 1.34 1.40 1.57 1.56 1.58 1.65 1.60
0.06 0.06 0.06 0.07 0.15 0.34 0.70 1.06 1.13 0.87 0.64 0.43 0.33 0.33 0.41 0.38 0.47 0.51 0.38 0.37 0.40 0.39 0.47 0.58 0.73 0.93 1.11 1.12 1.11 1.15 1.34 1.39 1.47 1.47 1.31 1.24 1.19 1.15 1.17 1.16 1.24 1.24 1.24 1.36 1.59 1.62 1.69 1.83 1.81
0.08 0.08 0.09 0.10 0.12 0.22 0.53 0.78 0.70 0.69 0.52 0.42 0.43 0.51 0.40 0.38 0.44 0.47 0.35 0.30 0.34 0.38 0.45 0.56 0.68 0.94 1.13 1.05 1.07 1.16 1.30 1.35 1.36 1.47 1.44 1.32 1.24 1.21 1.16 1.12 1.14 1.13 1.10 1.20 1.37 1.51 1.70 1.83 1.88
0.10 0.10 0.11 0.14 0.16 0.17 0.28 0.49 0.43 0.50 0.48 0.56 0.61 0.57 0.48 0.47 0.46 0.48 0.43 0.45 0.47 0.50 0.54 0.64 0.71 0.85 0.97 1.02 1.10 1.16 1.25 1.27 1.22 1.26 1.34 1.38 1.28 1.20 1.20 1.23 1.19 1.08 1.07 1.17 1.31 1.48 1.66 1.82 1.92